QPF
0.00 0.00 0.00 0.00 0.00 0.00 0.00 0.00 0.00 0.00 0.00 0.00 0.00 0.00 0.00 0.00 0.00 0.00 0.00 0.00 0.00 0.00 0.00 0.00 0.00 0.00 0.00 0.00 0.00 0.00 0.00 0.00 0.00 0.00 0.00 0.00 0.00 0.00 0.00 0.00 0.00 0.00 0.00 0.00 0.00 0.00 0.00 0.00 0.00 0.00 0.00 0.00 0.00 0.00
0.00 0.00 0.00 0.00 0.00 0.00 0.00 0.00 0.00 0.00 0.00 0.00 0.00 0.00 0.00 0.00 0.00 0.00 0.00 0.00 0.00 0.00 0.00 0.00 0.00 0.00 0.00 0.00 0.00 0.00 0.00 0.00 0.00 0.00 0.00 0.00 0.00 0.00 0.00 0.00 0.00 0.00 0.00 0.00 0.00 0.00 0.00 0.00 0.00 0.00 0.00 0.00 0.00 0.00
0.00 0.00 0.00 0.00 0.00 0.00 0.00 0.00 0.00 0.00 0.00 0.00 0.00 0.00 0.00 0.00 0.00 0.00 0.00 0.00 0.00 0.00 0.00 0.00 0.00 0.00 0.00 0.00 0.00 0.00 0.00 0.00 0.00 0.00 0.00 0.00 0.00 0.00 0.00 0.00 0.00 0.00 0.00 0.00 0.00 0.00 0.00 0.00 0.00 0.00 0.00 0.00 0.00 0.00
0.00 0.00 0.00 0.00 0.00 0.00 0.00 0.00 0.00 0.00 0.00 0.00 0.00 0.00 0.00 0.00 0.00 0.00 0.00 0.00 0.00 0.00 0.00 0.00 0.00 0.00 0.00 0.00 0.00 0.00 0.00 0.00 0.00 0.00 0.00 0.00 0.00 0.00 0.00 0.00 0.00 0.00 0.00 0.00 0.00 0.00 0.00 0.00 0.00 0.00 0.00 0.00 0.00 0.00
0.00 0.00 0.00 0.00 0.00 0.00 0.00 0.00 0.00 0.00 0.00 0.00 0.00 0.00 0.00 0.00 0.00 0.00 0.00 0.00 0.00 0.00 0.00 0.00 0.00 0.00 0.00 0.00 0.00 0.00 0.00 0.00 0.00 0.00 0.00 0.00 0.00 0.00 0.00 0.00 0.00 0.00 0.00 0.00 0.00 0.00 0.00 0.00 0.00 0.00 0.00 0.00 0.00 0.00
0.00 0.00 0.00 0.00 0.00 0.00 0.00 0.00 0.00 0.00 0.00 0.00 0.00 0.00 0.00 0.00 0.00 0.00 0.00 0.00 0.00 0.00 0.00 0.00 0.00 0.00 0.00 0.00 0.00 0.00 0.00 0.00 0.00 0.00 0.00 0.00 0.00 0.00 0.00 0.00 0.00 0.00 0.00 0.00 0.00 0.00 0.00 0.00 0.00 0.00 0.00 0.00 0.00 0.00
0.00 0.00 0.00 0.00 0.00 0.00 0.00 0.00 0.00 0.00 0.00 0.00 0.00 0.00 0.00 0.00 0.00 0.00 0.00 0.00 0.00 0.00 0.00 0.00 0.00 0.00 0.00 0.00 0.00 0.00 0.00 0.00 0.00 0.00 0.00 0.00 0.00 0.00 0.00 0.00 0.00 0.00 0.00 0.00 0.00 0.00 0.00 0.00 0.00 0.00 0.00 0.00 0.00 0.00
0.00 0.00 0.00 0.00 0.00 0.00 0.00 0.00 0.00 0.00 0.00 0.00 0.00 0.00 0.00 0.00 0.00 0.00 0.00 0.00 0.00 0.00 0.00 0.00 0.00 0.00 0.00 0.00 0.00 0.00 0.00 0.00 0.00 0.00 0.00 0.00 0.00 0.00 0.00 0.00 0.00 0.00 0.00 0.00 0.00 0.00 0.00 0.00 0.00 0.00 0.00 0.00 0.00 0.00
0.00 0.00 0.00 0.00 0.00 0.00 0.00 0.00 0.00 0.00 0.00 0.00 0.00 0.00 0.00 0.00 0.00 0.00 0.00 0.00 0.00 0.00 0.00 0.00 0.00 0.00 0.00 0.00 0.00 0.00 0.00 0.00 0.00 0.00 0.00 0.00 0.00 0.00 0.00 0.00 0.00 0.00 0.00 0.00 0.00 0.00 0.00 0.00 0.00 0.00 0.00 0.00 0.00 0.00
0.00 0.00 0.00 0.00 0.00 0.00 0.00 0.00 0.00 0.00 0.00 0.00 0.00 0.00 0.00 0.00 0.00 0.00 0.00 0.00 0.00 0.00 0.00 0.00 0.00 0.00 0.00 0.00 0.00 0.00 0.00 0.00 0.00 0.00 0.00 0.00 0.00 0.00 0.00 0.00 0.00 0.00 0.00 0.00 0.00 0.00 0.00 0.00 0.00 0.00 0.00 0.00 0.00 0.00
0.00 0.00 0.00 0.00 0.00 0.00 0.00 0.00 0.00 0.00 0.00 0.00 0.00 0.00 0.00 0.00 0.00 0.00 0.00 0.00 0.00 0.00 0.00 0.00 0.00 0.00 0.00 0.00 0.00 0.00 0.00 0.00 0.00 0.00 0.00 0.00 0.00 0.00 0.00 0.00 0.00 0.00 0.00 0.00 0.00 0.00 0.00 0.00 0.00 0.00 0.00 0.00 0.00 0.00
0.00 0.00 0.00 0.00 0.00 0.00 0.00 0.00 0.00 0.00 0.00 0.00 0.00 0.00 0.00 0.00 0.00 0.00 0.00 0.00 0.00 0.00 0.00 0.00 0.00 0.00 0.00 0.00 0.00 0.00 0.00 0.00 0.00 0.00 0.00 0.00 0.00 0.00 0.00 0.00 0.00 0.00 0.00 0.00 0.00 0.00 0.00 0.00 0.00 0.00 0.00 0.00 0.00 0.00
0.00 0.00 0.00 0.00 0.00 0.00 0.00 0.00 0.00 0.00 0.00 0.00 0.00 0.00 0.00 0.00 0.00 0.00 0.00 0.00 0.00 0.00 0.00 0.00 0.00 0.00 0.00 0.00 0.00 0.00 0.00 0.00 0.00 0.00 0.00 0.00 0.00 0.00 0.00 0.00 0.00 0.00 0.00 0.00 0.00 0.00 0.00 0.00 0.00 0.00 0.00 0.00 0.00 0.00
0.00 0.00 0.00 0.00 0.00 0.00 0.00 0.00 0.00 0.00 0.00 0.00 0.00 0.00 0.00 0.00 0.00 0.00 0.00 0.00 0.00 0.00 0.00 0.00 0.00 0.00 0.00 0.00 0.00 0.00 0.00 0.00 0.00 0.00 0.00 0.00 0.00 0.00 0.00 0.00 0.00 0.00 0.00 0.00 0.00 0.00 0.00 0.00 0.00 0.00 0.00 0.00 0.00 0.00
0.00 0.00 0.00 0.00 0.00 0.00 0.00 0.00 0.01 0.00 0.00 0.00 0.00 0.00 0.00 0.00 0.00 0.00 0.00 0.00 0.00 0.00 0.00 0.00 0.00 0.00 0.00 0.00 0.00 0.00 0.00 0.00 0.00 0.00 0.00 0.00 0.00 0.00 0.00 0.00 0.00 0.00 0.00 0.00 0.00 0.00 0.00 0.00 0.00 0.00 0.00 0.00 0.00 0.00
0.00 0.00 0.00 0.00 0.00 0.00 0.00 0.00 0.01 0.03 0.01 0.00 0.00 0.00 0.00 0.00 0.00 0.00 0.00 0.00 0.00 0.00 0.00 0.00 0.00 0.00 0.00 0.00 0.00 0.00 0.00 0.00 0.00 0.00 0.00 0.00 0.00 0.00 0.00 0.00 0.00 0.00 0.00 0.00 0.00 0.00 0.00 0.00 0.00 0.00 0.00 0.00 0.00 0.00
0.03 0.00 0.00 0.00 0.00 0.00 0.00 0.00 0.02 0.05 0.02 0.00 0.00 0.00 0.00 0.00 0.00 0.00 0.00 0.00 0.00 0.00 0.00 0.00 0.00 0.00 0.00 0.00 0.00 0.00 0.00 0.00 0.00 0.00 0.00 0.00 0.00 0.00 0.00 0.00 0.00 0.00 0.00 0.00 0.00 0.00 0.00 0.00 0.00 0.00 0.00 0.00 0.00 0.00
0.02 0.00 0.00 0.00 0.00 0.00 0.00 0.00 0.00 0.01 0.00 0.00 0.00 0.00 0.00 0.00 0.00 0.00 0.00 0.00 0.00 0.00 0.00 0.00 0.00 0.00 0.00 0.00 0.00 0.00 0.00 0.00 0.00 0.00 0.00 0.00 0.00 0.00 0.00 0.00 0.00 0.00 0.00 0.00 0.00 0.00 0.00 0.00 0.00 0.00 0.00 0.00 0.00 0.00
0.01 0.01 0.00 0.00 0.01 0.01 0.00 0.00 0.00 0.00 0.00 0.00 0.00 0.00 0.00 0.00 0.00 0.00 0.00 0.00 0.00 0.00 0.00 0.00 0.00 0.00 0.00 0.00 0.00 0.00 0.00 0.00 0.00 0.00 0.00 0.00 0.00 0.00 0.00 0.00 0.00 0.00 0.00 0.00 0.00 0.00 0.00 0.00 0.00 0.00 0.00 0.00 0.00 0.00
0.05 0.04 0.02 0.04 0.05 0.02 0.00 0.00 0.00 0.00 0.00 0.00 0.00 0.00 0.00 0.00 0.00 0.00 0.00 0.00 0.00 0.00 0.00 0.00 0.00 0.00 0.00 0.00 0.00 0.00 0.00 0.00 0.00 0.00 0.00 0.00 0.00 0.00 0.00 0.00 0.00 0.00 0.00 0.00 0.00 0.00 0.00 0.00 0.00 0.00 0.00 0.00 0.00 0.00
0.04 0.04 0.05 0.06 0.03 0.01 0.01 0.00 0.00 0.00 0.00 0.00 0.00 0.00 0.00 0.00 0.00 0.00 0.00 0.00 0.00 0.00 0.00 0.00 0.00 0.00 0.00 0.00 0.00 0.00 0.00 0.00 0.00 0.00 0.00 0.00 0.00 0.00 0.00 0.00 0.00 0.00 0.00 0.00 0.00 0.00 0.00 0.00 0.00 0.00 0.00 0.00 0.00 0.00
0.01 0.02 0.02 0.02 0.01 0.01 0.00 0.00 0.00 0.00 0.00 0.00 0.00 0.00 0.00 0.00 0.00 0.00 0.00 0.00 0.00 0.00 0.00 0.00 0.00 0.00 0.00 0.00 0.00 0.00 0.00 0.00 0.00 0.00 0.00 0.00 0.00 0.00 0.00 0.00 0.00 0.00 0.00 0.00 0.00 0.00 0.00 0.00 0.00 0.00 0.00 0.00 0.00 0.00
0.01 0.01 0.00 0.00 0.00 0.00 0.00 0.00 0.00 0.00 0.00 0.00 0.00 0.00 0.00 0.00 0.00 0.00 0.00 0.00 0.00 0.00 0.00 0.00 0.00 0.00 0.00 0.00 0.00 0.00 0.00 0.00 0.00 0.00 0.00 0.00 0.00 0.00 0.00 0.00 0.00 0.00 0.00 0.00 0.00 0.00 0.00 0.00 0.00 0.00 0.00 0.00 0.00 0.00
0.00 0.00 0.00 0.00 0.00 0.00 0.00 0.00 0.00 0.00 0.00 0.00 0.00 0.00 0.00 0.00 0.00 0.00 0.00 0.00 0.00 0.00 0.00 0.00 0.00 0.00 0.00 0.00 0.00 0.00 0.00 0.00 0.00 0.00 0.00 0.00 0.00 0.00 0.00 0.00 0.00 0.00 0.00 0.00 0.00 0.00 0.00 0.00 0.00 0.00 0.00 0.00 0.00 0.00
0.01 0.00 0.00 0.00 0.00 0.00 0.00 0.00 0.00 0.00 0.00 0.00 0.00 0.00 0.00 0.00 0.00 0.00 0.00 0.00 0.00 0.00 0.00 0.00 0.00 0.00 0.00 0.00 0.00 0.00 0.00 0.00 0.00 0.00 0.00 0.00 0.00 0.00 0.00 0.00 0.00 0.00 0.00 0.00 0.00 0.00 0.00 0.00 0.00 0.00 0.00 0.00 0.00 0.00
0.00 0.00 0.00 0.00 0.00 0.00 0.00 0.00 0.00 0.00 0.00 0.00 0.00 0.00 0.00 0.00 0.01 0.00 0.00 0.00 0.00 0.00 0.00 0.00 0.00 0.00 0.00 0.00 0.00 0.00 0.00 0.00 0.00 0.00 0.00 0.00 0.00 0.00 0.00 0.00 0.00 0.00 0.00 0.00 0.00 0.00 0.00 0.00 0.00 0.00 0.00 0.00 0.00 0.00
0.00 0.00 0.00 0.00 0.00 0.00 0.00 0.00 0.00 0.00 0.00 0.00 0.00 0.00 0.00 0.01 0.00 0.00 0.00 0.00 0.00 0.00 0.00 0.00 0.00 0.00 0.00 0.00 0.00 0.00 0.00 0.00 0.00 0.00 0.00 0.00 0.00 0.00 0.00 0.00 0.00 0.00 0.00 0.00 0.00 0.00 0.00 0.00 0.00 0.00 0.00 0.00 0.00 0.00
0.00 0.00 0.00 0.00 0.00 0.00 0.00 0.00 0.00 0.00 0.00 0.00 0.00 0.00 0.00 0.00 0.00 0.00 0.00 0.00 0.00 0.00 0.00 0.00 0.00 0.00 0.00 0.00 0.00 0.00 0.00 0.00 0.00 0.00 0.00 0.00 0.00 0.00 0.00 0.00 0.00 0.00 0.00 0.00 0.00 0.00 0.00 0.00 0.00 0.00 0.00 0.00 0.00 0.00
0.00 0.00 0.00 0.00 0.00 0.00 0.00 0.00 0.00 0.00 0.00 0.00 0.00 0.00 0.00 0.00 0.00 0.00 0.00 0.00 0.00 0.00 0.00 0.00 0.00 0.00 0.00 0.00 0.00 0.00 0.00 0.00 0.00 0.00 0.00 0.00 0.00 0.00 0.00 0.00 0.00 0.00 0.00 0.00 0.00 0.00 0.00 0.00 0.00 0.00 0.00 0.00 0.00 0.00
0.00 0.00 0.00 0.00 0.00 0.00 0.00 0.00 0.00 0.00 0.00 0.00 0.00 0.00 0.00 0.00 0.00 0.00 0.00 0.00 0.00 0.00 0.00 0.00 0.00 0.00 0.00 0.00 0.00 0.00 0.00 0.00 0.00 0.00 0.00 0.00 0.00 0.00 0.00 0.00 0.00 0.00 0.00 0.00 0.00 0.00 0.00 0.00 0.00 0.00 0.00 0.00 0.00 0.00
0.00 0.00 0.00 0.00 0.00 0.00 0.00 0.00 0.00 0.00 0.00 0.00 0.00 0.00 0.00 0.00 0.00 0.00 0.00 0.00 0.00 0.00 0.00 0.00 0.00 0.00 0.00 0.00 0.00 0.00 0.00 0.00 0.00 0.00 0.00 0.00 0.00 0.00 0.00 0.00 0.00 0.00 0.00 0.00 0.00 0.00 0.00 0.00 0.00 0.00 0.00 0.00 0.00 0.00
0.00 0.00 0.00 0.00 0.00 0.00 0.00 0.00 0.00 0.00 0.00 0.00 0.00 0.00 0.00 0.00 0.00 0.00 0.00 0.00 0.00 0.00 0.00 0.00 0.00 0.00 0.00 0.00 0.00 0.00 0.00 0.00 0.00 0.00 0.00 0.00 0.00 0.00 0.00 0.00 0.00 0.00 0.00 0.00 0.00 0.00 0.00 0.00 0.00 0.00 0.00 0.00 0.00 0.00
0.00 0.00 0.00 0.00 0.00 0.00 0.00 0.00 0.00 0.00 0.00 0.00 0.00 0.00 0.00 0.00 0.00 0.00 0.00 0.00 0.00 0.00 0.00 0.00 0.00 0.00 0.00 0.00 0.00 0.00 0.00 0.00 0.00 0.00 0.00 0.00 0.00 0.00 0.00 0.00 0.00 0.00 0.00 0.00 0.00 0.00 0.00 0.00 0.00 0.00 0.00 0.00 0.00 0.00
MSLP
1024.90 1024.89 1025.02 1025.08 1025.01 1024.91 1024.76 1024.61 1024.49 1024.40 1024.39 1024.54 1024.92 1025.15 1025.22 1025.31 1025.49 1025.20 1025.41 1025.80 1025.60 1024.06 1022.42 1022.56 1022.30 1022.22 1022.52 1022.37 1021.87 1022.47 1022.57 1022.45 1022.14 1021.26 1020.23 1019.36 1019.10 1018.50 1018.60 1017.83 1018.21 1018.55 1018.90 1018.53 1017.97 1016.50 1013.53 1011.83 1012.35 1011.89 1010.67 1010.60 1010.73 1010.74
1024.30 1024.28 1024.33 1024.39 1024.43 1024.39 1024.27 1024.14 1023.96 1023.89 1023.86 1023.87 1024.28 1024.69 1025.02 1024.95 1025.06 1025.23 1025.03 1025.71 1025.87 1025.45 1023.30 1023.07 1022.64 1022.47 1022.61 1022.55 1022.24 1022.37 1022.12 1021.90 1021.22 1020.70 1020.24 1019.50 1018.97 1018.45 1017.71 1016.71 1016.96 1016.77 1015.67 1015.29 1014.83 1012.26 1010.99 1010.96 1010.28 1010.27 1010.28 1010.52 1010.69 1010.81
1023.73 1023.69 1023.69 1023.61 1023.64 1023.73 1023.68 1023.56 1023.48 1023.38 1023.28 1023.13 1023.51 1023.90 1024.34 1024.67 1024.78 1024.87 1024.59 1025.19 1025.51 1024.84 1022.89 1022.84 1022.27 1022.28 1022.88 1022.96 1022.66 1022.44 1022.09 1021.97 1021.89 1021.71 1020.78 1019.94 1019.20 1018.32 1017.28 1016.17 1015.39 1014.98 1014.85 1014.36 1013.55 1010.05 1010.18 1010.11 1010.05 1010.04 1010.16 1010.25 1010.43 1010.59
1023.27 1023.23 1023.10 1022.94 1022.85 1022.87 1022.87 1022.85 1022.80 1022.79 1022.73 1022.48 1022.70 1023.21 1023.63 1023.93 1024.23 1024.59 1024.59 1024.66 1024.83 1024.77 1023.90 1021.90 1022.52 1022.59 1022.81 1022.93 1022.96 1022.69 1022.64 1022.68 1022.48 1022.31 1021.37 1020.36 1019.36 1018.31 1016.88 1015.79 1015.12 1013.81 1013.90 1012.75 1011.32 1009.82 1009.63 1009.13 1009.17 1009.33 1009.60 1010.11 1010.41 1010.58
1022.97 1022.63 1022.44 1022.38 1022.25 1022.14 1022.12 1022.04 1022.05 1022.06 1022.10 1021.98 1021.90 1022.38 1022.83 1023.36 1023.67 1024.06 1024.32 1024.44 1024.06 1024.28 1023.52 1022.12 1022.09 1022.49 1022.79 1022.54 1022.61 1022.85 1022.82 1022.72 1022.39 1021.98 1021.25 1020.34 1019.41 1019.13 1017.45 1016.43 1012.87 1012.28 1011.12 1011.36 1009.10 1008.59 1008.66 1008.39 1009.01 1009.63 1010.09 1010.28 1010.41 1010.22
1022.36 1022.21 1021.90 1021.48 1021.54 1021.53 1021.54 1021.36 1021.27 1021.25 1021.31 1021.36 1021.29 1021.68 1022.15 1022.69 1023.39 1024.35 1024.40 1023.47 1024.02 1023.95 1024.29 1022.84 1021.83 1022.07 1022.56 1022.73 1022.77 1022.74 1022.78 1022.84 1022.55 1021.93 1020.72 1019.70 1019.10 1019.50 1017.30 1014.28 1010.01 1009.87 1009.39 1009.05 1008.34 1008.41 1008.86 1008.87 1009.32 1009.67 1009.88 1009.95 1010.14 1010.28
1021.63 1021.28 1021.21 1021.00 1020.82 1020.72 1020.84 1020.77 1020.59 1020.59 1020.54 1020.60 1020.68 1020.87 1021.40 1021.97 1022.66 1023.44 1023.43 1023.26 1023.46 1023.85 1024.25 1023.21 1021.49 1022.06 1022.38 1022.52 1022.93 1022.91 1023.15 1022.80 1022.70 1022.03 1020.73 1019.78 1019.41 1019.60 1016.80 1012.44 1009.03 1008.31 1008.22 1008.19 1008.47 1008.85 1009.13 1009.09 1008.98 1009.35 1009.62 1009.73 1009.79 1009.72
1021.15 1020.77 1020.47 1020.35 1020.25 1020.22 1020.00 1020.03 1019.95 1019.84 1020.00 1019.92 1019.97 1020.23 1020.69 1021.45 1022.42 1022.96 1022.77 1023.03 1023.47 1024.01 1024.13 1023.24 1021.55 1022.47 1022.79 1022.37 1022.51 1022.58 1022.34 1022.70 1022.12 1021.16 1020.15 1019.68 1019.29 1018.78 1014.79 1008.86 1008.46 1007.98 1008.05 1007.85 1007.84 1008.26 1008.50 1008.63 1008.96 1009.25 1009.53 1009.61 1009.40 1009.22
1020.42 1020.31 1019.95 1019.88 1019.72 1019.70 1019.46 1019.27 1019.36 1019.23 1019.22 1019.34 1019.45 1019.78 1020.76 1021.66 1022.22 1022.07 1022.47 1022.91 1023.36 1023.87 1023.19 1022.34 1021.37 1021.45 1022.37 1022.15 1022.07 1022.78 1022.30 1021.82 1021.07 1020.54 1019.49 1019.26 1017.53 1015.32 1008.80 1008.46 1007.45 1007.38 1007.40 1007.48 1007.65 1007.73 1008.28 1008.66 1008.63 1008.84 1009.09 1009.22 1009.15 1008.69
1019.80 1019.97 1019.73 1019.53 1019.42 1019.27 1019.20 1018.81 1018.68 1018.86 1018.72 1018.64 1019.46 1020.24 1020.97 1021.14 1021.69 1022.34 1023.07 1023.38 1023.24 1022.40 1021.84 1020.62 1019.87 1019.87 1020.46 1021.04 1021.59 1021.98 1022.04 1021.26 1020.23 1018.73 1018.65 1017.43 1013.63 1010.98 1008.17 1007.44 1007.36 1006.93 1006.81 1007.41 1007.57 1007.70 1007.95 1008.04 1008.27 1008.48 1008.58 1008.65 1008.70 1008.74
1019.58 1019.47 1019.25 1019.15 1019.01 1018.88 1018.73 1018.46 1018.32 1018.38 1018.58 1018.77 1019.18 1019.96 1020.91 1021.46 1021.81 1021.97 1021.91 1021.85 1021.23 1020.55 1019.55 1019.01 1018.38 1018.31 1020.27 1019.84 1020.20 1020.78 1020.74 1020.40 1019.57 1017.79 1017.98 1015.04 1011.93 1008.27 1006.21 1006.05 1005.89 1006.16 1006.43 1006.82 1007.01 1006.86 1006.91 1007.33 1007.68 1008.06 1008.19 1008.22 1008.26 1008.43
1019.06 1019.05 1018.82 1018.88 1018.66 1018.48 1018.03 1018.21 1017.90 1017.87 1018.11 1018.48 1019.16 1020.15 1020.79 1021.17 1021.36 1021.29 1019.92 1019.29 1018.50 1017.57 1017.14 1017.10 1017.03 1017.42 1019.11 1019.08 1019.22 1020.02 1019.64 1019.85 1018.24 1017.75 1017.19 1013.46 1008.93 1006.03 1005.97 1005.65 1005.46 1005.53 1005.49 1005.69 1006.30 1006.93 1006.98 1007.16 1007.69 1007.91 1008.10 1008.22 1008.17 1008.20
1018.21 1018.34 1018.27 1018.45 1018.20 1017.85 1017.87 1017.75 1017.63 1017.38 1017.99 1018.84 1019.57 1020.01 1019.74 1020.13 1019.62 1017.93 1016.39 1015.76 1015.49 1015.07 1015.15 1015.82 1016.71 1017.33 1018.55 1018.73 1018.81 1019.19 1018.58 1017.89 1017.79 1017.21 1014.18 1009.94 1006.63 1005.49 1005.34 1005.42 1005.19 1005.38 1005.87 1005.95 1006.09 1006.41 1006.89 1007.08 1007.26 1008.03 1008.13 1008.34 1008.43 1008.20
1017.29 1017.41 1017.57 1017.67 1017.53 1017.41 1017.58 1017.46 1017.33 1017.82 1017.73 1018.02 1018.71 1018.72 1017.91 1016.66 1014.58 1012.63 1012.38 1012.42 1012.69 1013.24 1014.02 1014.85 1015.99 1016.51 1016.97 1017.70 1017.55 1017.46 1016.91 1016.88 1016.35 1014.78 1010.83 1006.70 1005.15 1004.89 1004.70 1004.82 1004.82 1005.07 1005.69 1006.41 1006.67 1006.59 1006.59 1006.92 1007.21 1008.15 1008.34 1008.25 1008.28 1008.04
1016.50 1016.65 1016.66 1016.67 1016.81 1016.82 1016.94 1017.10 1017.24 1017.26 1017.44 1017.57 1017.09 1015.81 1014.63 1012.41 1012.00 1011.87 1011.80 1012.23 1012.83 1013.12 1013.69 1014.76 1015.46 1015.79 1016.05 1016.11 1015.82 1015.66 1015.57 1014.18 1012.79 1009.88 1006.76 1004.89 1004.46 1004.54 1004.76 1004.96 1004.33 1004.88 1005.31 1005.51 1005.98 1006.59 1006.81 1006.81 1006.71 1007.34 1007.65 1007.81 1008.09 1007.90
1015.66 1015.89 1015.65 1015.93 1015.84 1016.14 1016.15 1016.13 1016.38 1016.90 1017.15 1016.86 1015.53 1014.03 1012.52 1012.40 1011.59 1012.03 1012.21 1012.33 1012.72 1013.61 1014.14 1013.99 1014.27 1014.45 1013.88 1013.41 1013.29 1012.41 1011.91 1009.91 1007.47 1006.52 1004.83 1004.49 1004.33 1004.55 1004.65 1004.17 1004.09 1004.39 1004.81 1005.09 1005.26 1005.61 1005.91 1006.39 1006.33 1006.40 1006.77 1006.89 1007.48 1007.52
1015.05 1014.60 1014.84 1014.80 1015.08 1015.54 1015.95 1015.90 1015.82 1015.85 1015.81 1015.06 1013.77 1013.03 1011.92 1011.35 1010.57 1010.34 1010.65 1011.18 1011.78 1012.86 1012.92 1013.00 1012.37 1011.19 1010.96 1010.49 1009.93 1008.93 1006.97 1004.77 1004.82 1004.86 1004.34 1004.21 1004.33 1004.17 1003.79 1003.72 1003.91 1003.67 1004.46 1004.92 1005.10 1004.84 1005.01 1005.21 1005.64 1005.85 1005.93 1005.65 1006.38 1006.80
1013.52 1013.76 1014.20 1014.17 1014.70 1015.17 1015.11 1015.44 1015.80 1015.13 1014.10 1013.19 1012.68 1011.04 1010.98 1010.31 1009.71 1009.69 1009.94 1010.64 1011.07 1011.26 1011.16 1010.72 1010.10 1009.43 1008.70 1007.68 1006.25 1005.47 1005.06 1004.55 1004.64 1004.40 1003.84 1003.40 1003.46 1003.79 1003.95 1003.63 1003.30 1003.21 1003.75 1004.33 1004.62 1004.54 1004.44 1004.89 1005.40 1004.95 1004.88 1004.84 1005.50 1005.70
1012.43 1012.73 1013.10 1013.78 1013.71 1014.78 1015.35 1015.03 1015.04 1014.21 1012.64 1011.91 1010.76 1010.22 1010.45 1009.61 1008.96 1008.86 1008.99 1009.29 1009.31 1009.10 1009.40 1009.51 1008.57 1007.11 1005.86 1004.95 1004.11 1003.41 1003.26 1003.07 1002.90 1002.82 1002.75 1002.64 1002.81 1002.99 1003.77 1004.06 1003.66 1003.06 1003.07 1003.35 1003.82 1004.01 1003.68 1003.66 1003.81 1003.82 1003.83 1004.21 1004.34 1004.47
1011.48 1011.86 1011.87 1012.44 1013.59 1014.31 1014.64 1014.08 1013.57 1012.88 1011.53 1010.58 1010.19 1009.55 1009.53 1008.45 1007.97 1008.06 1008.00 1008.23 1008.56 1008.96 1008.56 1007.61 1005.89 1004.44 1003.72 1002.52 1001.94 1001.62 1001.69 1001.74 1002.08 1001.92 1001.45 1001.39 1001.55 1002.01 1002.47 1002.83 1002.65 1002.19 1002.49 1003.37 1003.39 1003.45 1003.49 1003.42 1003.47 1003.17 1003.08 1003.36 1003.56 1003.29
1010.74 1010.73 1011.41 1011.70 1012.40 1012.98 1013.04 1012.36 1011.96 1011.75 1011.01 1010.09 1009.34 1009.52 1008.46 1008.10 1007.70 1007.18 1007.00 1007.76 1008.14 1007.31 1006.19 1005.01 1003.92 1002.69 1002.25 1001.35 1000.87 1000.85 1000.54 1001.23 1001.23 1000.88 1000.17 1000.05 1000.29 1000.89 1001.09 1001.24 1001.77 1001.85 1001.68 1002.17 1002.37 1001.95 1001.93 1002.22 1002.26 1002.24 1002.24 1002.30 1001.99 1002.04
1009.37 1009.80 1010.46 1010.96 1011.39 1011.77 1011.58 1011.06 1010.70 1010.45 1010.71 1009.46 1009.50 1008.77 1007.97 1007.53 1006.50 1005.70 1006.33 1006.55 1005.51 1004.21 1003.65 1002.94 1002.15 1001.96 1001.43 1000.73 1000.23 1000.09 1000.08 999.96 999.62 999.42 998.79 998.47 998.47 999.01 999.60 999.92 1000.24 1000.49 1000.43 1000.34 1000.46 1000.66 1000.76 1000.81 1000.82 1000.95 1001.20 1000.99 1001.04 1001.20
1009.06 1009.06 1009.57 1009.94 1010.33 1010.22 1009.77 1010.05 1010.27 1009.90 1009.45 1008.29 1008.26 1007.85 1006.79 1006.02 1005.22 1005.23 1004.95 1003.46 1002.75 1002.33 1001.77 1001.25 1001.13 1001.13 1000.48 999.67 999.54 999.10 998.81 998.62 998.14 997.97 997.74 997.43 997.38 997.12 997.42 997.81 998.81 999.05 998.85 998.84 999.26 999.49 999.69 999.69 999.88 1000.13 1000.29 1000.36 1000.41 1000.32
1007.87 1008.08 1007.94 1008.28 1008.51 1008.60 1008.93 1008.98 1009.06 1008.67 1007.85 1007.56 1007.38 1006.81 1005.38 1004.77 1004.62 1004.22 1003.19 1002.49 1001.40 1000.88 1000.69 1000.48 1000.15 999.50 999.01 998.84 998.31 997.32 997.03 997.54 997.22 996.57 996.48 996.73 996.29 995.85 996.30 996.66 997.03 997.29 997.47 997.59 998.03 998.36 998.71 998.76 999.04 999.34 999.42 999.58 999.58 999.63
1006.92 1006.40 1006.31 1006.31 1006.67 1007.60 1008.00 1007.76 1007.34 1006.89 1006.31 1006.36 1006.41 1005.59 1004.36 1004.67 1004.04 1002.98 1002.13 1000.69 1000.17 999.87 999.27 998.83 998.66 998.34 997.87 996.91 996.37 995.99 995.82 996.02 995.87 995.60 995.12 995.13 994.85 994.93 995.33 995.89 996.20 996.45 996.72 996.97 997.11 997.40 997.45 997.83 998.45 998.58 998.65 998.74 998.82 998.82
1004.36 1004.27 1004.49 1004.61 1005.35 1005.73 1005.58 1005.87 1005.96 1005.59 1005.57 1005.34 1004.62 1004.28 1003.95 1003.71 1003.02 1001.17 999.79 999.31 998.88 998.44 998.27 998.22 998.02 997.59 996.94 996.43 995.68 995.12 994.48 994.81 994.98 994.89 994.60 994.63 994.45 994.72 994.92 995.29 995.54 995.43 995.78 995.96 996.08 996.12 996.32 996.60 997.20 997.78 997.96 997.90 997.94 998.15
1002.60 1002.91 1003.39 1003.43 1003.88 1004.29 1004.52 1004.57 1004.46 1004.56 1004.13 1003.87 1003.19 1003.20 1003.11 1002.16 1000.54 999.02 998.61 998.42 998.33 998.01 998.08 998.05 997.92 997.58 996.76 995.97 995.11 994.56 994.04 994.04 994.19 994.15 994.17 994.18 994.05 994.15 994.32 994.45 994.36 994.28 994.66 995.08 995.22 995.24 995.50 996.00 996.52 996.87 996.78 996.96 997.42 997.83
1000.78 1001.35 1002.22 1003.21 1003.61 1003.50 1003.43 1003.34 1003.25 1003.04 1002.47 1002.24 1002.17 1001.47 1000.62 999.30 997.86 997.60 997.47 997.16 997.41 997.51 997.39 997.05 996.76 996.51 996.08 995.59 994.98 994.58 994.22 994.31 994.21 994.32 994.34 994.22 994.04 993.93 993.84 993.83 993.94 994.08 994.43 994.82 994.91 994.70 994.98 995.48 995.73 995.79 996.18 996.69 997.08 997.31
1000.38 1000.82 1001.35 1002.14 1002.76 1002.71 1002.30 1001.88 1001.29 1000.52 1000.16 1000.17 999.71 998.69 997.70 996.94 996.36 996.35 996.42 996.65 996.93 997.05 996.64 995.93 995.40 995.33 994.97 994.51 994.34 994.47 994.23 994.15 994.27 994.31 993.99 993.61 993.53 993.31 993.34 993.53 993.76 994.09 994.42 994.57 994.07 994.23 994.76 994.88 994.90 995.22 995.89 996.48 996.76 996.81
999.49 999.90 1000.40 1000.96 1001.21 1000.67 999.76 999.90 998.88 998.36 998.47 998.42 998.09 997.37 996.53 995.81 995.67 995.63 995.66 996.01 996.18 995.83 995.38 995.03 994.45 994.17 993.77 993.56 993.12 993.13 993.26 993.40 993.54 993.42 993.16 993.03 993.03 993.20 993.34 993.57 993.74 993.92 993.96 993.91 994.14 994.38 994.36 994.34 994.68 995.21 995.73 996.21 996.37 996.29
998.00 998.88 999.14 998.96 998.74 998.33 997.58 997.51 998.09 998.48 998.36 998.07 997.63 997.32 995.88 994.79 994.23 994.28 994.47 994.46 994.39 994.25 994.03 993.45 992.97 992.87 992.95 992.62 992.60 992.50 992.09 992.10 992.38 992.58 992.79 992.90 993.03 993.15 993.21 993.34 993.43 993.55 993.74 993.94 994.01 994.06 994.29 994.58 994.78 994.98 995.26 995.53 995.64 995.91
997.27 997.47 997.74 997.82 997.37 996.66 998.01 998.21 998.09 997.91 997.33 997.17 996.64 995.97 995.31 994.89 992.76 992.10 992.49 992.55 992.38 992.19 991.66 991.73 991.56 990.84 991.17 991.52 991.72 991.68 991.65 991.97 992.10 992.18 992.30 992.52 992.70 992.80 992.94 993.11 993.29 993.58 993.77 993.74 993.83 994.02 994.32 994.57 994.72 994.75 994.72 994.96 995.43 995.82
997.13 997.30 997.40 997.53 997.48 997.56 997.81 998.27 997.95 997.26 996.41 995.89 995.13 994.75 994.10 993.79 992.11 991.25 990.56 990.16 989.84 989.82 990.07 990.45 990.66 990.91 991.32 991.45 991.53 991.71 991.91 991.98 991.99 992.08 992.19 992.29 992.39 992.54 992.78 993.08 993.35 993.55 993.74 993.79 993.69 993.80 994.02 994.18 994.29 994.38 994.68 995.06 995.37 995.61
Thickness
5586 5585 5583 5581 5582 5581 5578 5576 5575 5574 5571 5568 5564 5561 5558 5556 5553 5553 5552 5544 5546 5562 5573 5562 5564 5562 5555 5558 5565 5550 5548 5543 5544 5548 5556 5561 5555 5563 5550 5562 5549 5540 5527 5521 5524 5530 5539 5577 5565 5566 5580 5575 5570 5567
5579 5580 5579 5578 5577 5576 5575 5574 5572 5570 5567 5566 5561 5557 5553 5552 5550 5547 5549 5540 5538 5539 5559 5554 5556 5556 5553 5555 5557 5549 5552 5548 5556 5558 5556 5558 5555 5557 5559 5566 5560 5553 5566 5569 5560 5576 5589 5581 5585 5582 5579 5571 5567 5564
5570 5572 5573 5574 5573 5572 5571 5570 5567 5567 5563 5564 5559 5555 5551 5546 5544 5543 5545 5538 5535 5539 5555 5552 5559 5555 5545 5541 5543 5548 5548 5546 5538 5537 5548 5553 5547 5557 5561 5565 5571 5569 5567 5562 5563 5595 5588 5586 5583 5577 5574 5570 5566 5562
5558 5562 5564 5566 5568 5568 5567 5566 5564 5562 5560 5560 5557 5552 5547 5544 5542 5538 5538 5537 5534 5533 5538 5564 5545 5545 5541 5537 5533 5534 5533 5529 5528 5526 5534 5540 5544 5554 5563 5569 5565 5579 5566 5570 5579 5590 5589 5589 5587 5581 5577 5568 5561 5557
5544 5549 5555 5558 5559 5560 5560 5560 5559 5557 5556 5554 5555 5551 5545 5539 5537 5533 5532 5532 5532 5530 5541 5549 5547 5539 5533 5534 5530 5525 5524 5524 5525 5526 5528 5532 5541 5533 5548 5550 5572 5583 5585 5577 5597 5601 5597 5598 5586 5576 5569 5563 5559 5558
5530 5534 5541 5548 5549 5551 5551 5552 5552 5552 5550 5549 5549 5547 5542 5535 5528 5521 5523 5531 5524 5521 5514 5530 5539 5535 5527 5524 5522 5519 5517 5514 5515 5516 5527 5536 5537 5524 5541 5565 5606 5597 5599 5598 5601 5600 5591 5588 5580 5575 5569 5566 5559 5553
5514 5522 5526 5532 5536 5539 5541 5542 5543 5542 5543 5542 5539 5539 5536 5531 5524 5518 5525 5524 5518 5513 5505 5514 5541 5526 5520 5518 5512 5510 5504 5506 5504 5507 5516 5523 5521 5511 5532 5571 5605 5608 5602 5598 5593 5588 5577 5578 5579 5573 5567 5564 5560 5556
5497 5505 5512 5517 5521 5525 5529 5531 5532 5532 5531 5532 5531 5528 5526 5521 5513 5516 5518 5513 5507 5502 5493 5505 5527 5516 5506 5511 5508 5504 5506 5498 5500 5505 5514 5508 5509 5508 5535 5596 5595 5594 5596 5594 5590 5586 5579 5579 5572 5565 5560 5555 5554 5555
5481 5487 5495 5500 5506 5508 5514 5517 5518 5519 5521 5521 5519 5514 5509 5505 5506 5510 5502 5500 5498 5494 5495 5498 5517 5535 5499 5500 5497 5487 5493 5495 5502 5496 5507 5502 5517 5527 5581 5585 5592 5588 5584 5582 5580 5581 5573 5564 5562 5560 5556 5553 5551 5555
5464 5466 5474 5481 5487 5491 5495 5501 5503 5502 5506 5508 5502 5495 5489 5496 5495 5489 5481 5482 5482 5488 5486 5499 5517 5518 5503 5496 5487 5485 5477 5486 5491 5506 5501 5501 5541 5567 5582 5586 5583 5585 5583 5573 5567 5561 5557 5557 5554 5553 5553 5551 5547 5544
5441 5447 5453 5460 5466 5471 5475 5481 5485 5486 5485 5489 5486 5481 5476 5473 5472 5472 5474 5478 5484 5489 5493 5499 5515 5516 5486 5494 5490 5479 5477 5480 5478 5507 5492 5519 5543 5566 5586 5584 5584 5579 5574 5564 5561 5566 5564 5557 5551 5548 5545 5542 5539 5534
5420 5425 5433 5437 5444 5449 5455 5457 5463 5467 5469 5468 5465 5457 5454 5453 5452 5459 5477 5481 5487 5500 5502 5503 5504 5503 5476 5479 5477 5462 5470 5462 5480 5482 5475 5506 5559 5583 5575 5575 5570 5567 5568 5565 5555 5547 5546 5542 5535 5532 5528 5525 5525 5522
5402 5406 5412 5415 5422 5429 5431 5436 5438 5448 5445 5438 5430 5426 5435 5434 5451 5475 5492 5496 5500 5505 5506 5491 5479 5475 5459 5460 5458 5448 5455 5465 5462 5456 5486 5540 5567 5569 5564 5559 5558 5553 5547 5547 5543 5536 5529 5526 5522 5511 5509 5506 5503 5503
5385 5390 5394 5397 5402 5404 5407 5413 5418 5418 5419 5418 5415 5415 5424 5448 5476 5508 5516 5518 5514 5497 5483 5478 5464 5464 5457 5445 5449 5448 5453 5443 5449 5463 5506 5551 5560 5559 5557 5548 5546 5540 5532 5521 5517 5517 5515 5510 5505 5493 5488 5487 5486 5486
5369 5373 5379 5386 5384 5384 5389 5389 5392 5393 5392 5393 5394 5416 5428 5479 5479 5481 5488 5483 5475 5474 5464 5450 5444 5446 5439 5438 5436 5439 5429 5445 5471 5509 5532 5538 5543 5539 5534 5525 5531 5526 5516 5510 5503 5496 5492 5491 5492 5483 5477 5474 5469 5469
5354 5357 5370 5368 5368 5368 5372 5374 5372 5367 5362 5368 5378 5403 5433 5437 5457 5448 5446 5449 5450 5445 5438 5436 5427 5424 5433 5433 5430 5445 5451 5469 5516 5509 5519 5523 5515 5512 5511 5514 5512 5511 5506 5501 5498 5491 5485 5478 5477 5474 5467 5463 5452 5448
5333 5352 5357 5356 5352 5350 5350 5352 5352 5349 5348 5363 5387 5396 5415 5427 5445 5453 5444 5439 5431 5421 5427 5421 5418 5435 5429 5420 5430 5457 5474 5528 5508 5504 5498 5502 5498 5501 5500 5497 5494 5495 5489 5483 5481 5482 5477 5473 5468 5463 5459 5460 5445 5439
5333 5340 5339 5338 5333 5332 5334 5331 5325 5330 5349 5370 5380 5408 5402 5418 5428 5431 5427 5418 5412 5412 5417 5413 5419 5409 5414 5427 5452 5467 5466 5476 5475 5478 5481 5486 5485 5480 5475 5480 5480 5481 5478 5470 5464 5464 5462 5455 5447 5451 5450 5447 5436 5429
5323 5325 5325 5319 5320 5314 5307 5313 5313 5324 5353 5367 5381 5391 5384 5400 5412 5418 5412 5410 5411 5407 5399 5391 5402 5405 5421 5439 5460 5473 5461 5460 5471 5470 5465 5465 5462 5462 5454 5448 5452 5458 5459 5457 5450 5448 5451 5447 5446 5444 5442 5434 5431 5426
5310 5310 5315 5310 5299 5292 5293 5305 5310 5322 5344 5362 5365 5374 5370 5389 5400 5397 5397 5395 5391 5374 5370 5379 5402 5426 5434 5455 5460 5463 5460 5454 5443 5445 5455 5456 5450 5441 5438 5439 5442 5444 5441 5432 5430 5429 5427 5426 5423 5425 5425 5420 5417 5418
5294 5300 5298 5295 5286 5285 5290 5303 5309 5318 5328 5338 5353 5345 5360 5363 5368 5377 5380 5373 5356 5360 5375 5396 5413 5429 5434 5440 5443 5442 5441 5432 5428 5434 5443 5445 5450 5432 5431 5430 5425 5422 5424 5420 5418 5422 5421 5417 5417 5415 5410 5407 5409 5407
5289 5291 5286 5282 5278 5275 5282 5296 5306 5313 5305 5327 5325 5333 5346 5354 5367 5375 5361 5353 5362 5387 5395 5405 5410 5410 5412 5416 5420 5418 5415 5416 5420 5420 5429 5434 5434 5433 5422 5423 5421 5416 5416 5418 5416 5412 5411 5412 5411 5406 5401 5401 5398 5395
5277 5280 5274 5272 5272 5273 5285 5286 5284 5298 5305 5326 5323 5328 5342 5354 5363 5355 5352 5374 5384 5396 5400 5399 5397 5394 5394 5403 5403 5407 5411 5409 5410 5409 5411 5415 5420 5425 5424 5422 5407 5412 5416 5416 5407 5404 5402 5403 5399 5396 5391 5388 5384 5382
5270 5269 5273 5271 5271 5271 5273 5276 5284 5298 5306 5312 5314 5317 5340 5349 5342 5341 5348 5365 5385 5392 5388 5382 5385 5387 5391 5389 5393 5402 5406 5397 5394 5402 5406 5402 5407 5419 5413 5409 5409 5407 5406 5406 5400 5397 5391 5392 5389 5384 5380 5375 5373 5370
5265 5271 5270 5266 5267 5266 5266 5277 5292 5300 5304 5305 5303 5313 5332 5317 5317 5327 5338 5369 5381 5378 5380 5382 5380 5381 5380 5389 5396 5398 5399 5393 5390 5392 5403 5402 5404 5404 5400 5394 5392 5392 5390 5390 5389 5387 5389 5383 5374 5371 5368 5366 5362 5357
5270 5271 5269 5267 5264 5276 5284 5278 5281 5292 5296 5295 5299 5308 5307 5304 5302 5311 5353 5369 5370 5368 5368 5365 5365 5368 5374 5380 5384 5389 5394 5388 5384 5384 5389 5386 5387 5382 5381 5379 5381 5386 5382 5380 5382 5384 5381 5376 5367 5358 5356 5354 5354 5349
5268 5263 5265 5272 5271 5272 5274 5269 5281 5282 5276 5274 5298 5293 5290 5287 5301 5335 5351 5351 5350 5353 5343 5340 5342 5347 5358 5366 5374 5379 5379 5378 5376 5376 5374 5373 5374 5372 5370 5371 5374 5378 5374 5373 5373 5373 5370 5364 5357 5352 5352 5349 5341 5333
5272 5271 5258 5258 5259 5269 5264 5268 5261 5258 5272 5281 5283 5279 5280 5301 5320 5336 5333 5337 5330 5324 5324 5330 5336 5339 5343 5351 5358 5360 5360 5358 5357 5356 5357 5358 5358 5360 5362 5364 5363 5365 5362 5360 5359 5361 5359 5354 5351 5351 5346 5338 5328 5321
5261 5259 5266 5245 5245 5249 5257 5268 5278 5288 5294 5287 5286 5291 5301 5314 5321 5319 5324 5324 5311 5307 5317 5330 5339 5339 5341 5347 5346 5344 5347 5347 5349 5352 5357 5364 5362 5360 5355 5354 5353 5351 5349 5347 5356 5354 5346 5346 5346 5342 5331 5322 5318 5317
5259 5268 5265 5245 5238 5252 5278 5268 5287 5294 5289 5284 5284 5288 5296 5306 5309 5307 5307 5304 5304 5312 5319 5327 5336 5340 5346 5348 5354 5351 5344 5343 5344 5351 5357 5358 5357 5348 5345 5343 5342 5340 5341 5344 5342 5338 5341 5342 5336 5328 5321 5313 5311 5312
5280 5265 5261 5271 5271 5279 5288 5289 5276 5256 5262 5266 5267 5262 5280 5294 5302 5306 5300 5306 5311 5317 5321 5330 5336 5339 5337 5341 5342 5346 5351 5346 5342 5341 5339 5337 5336 5336 5336 5335 5335 5336 5335 5333 5332 5330 5327 5324 5321 5319 5316 5313 5310 5307
5261 5266 5267 5264 5274 5285 5254 5252 5252 5257 5266 5263 5265 5273 5277 5279 5299 5314 5315 5317 5322 5329 5338 5339 5341 5348 5346 5338 5337 5339 5341 5336 5333 5332 5332 5332 5331 5330 5330 5329 5327 5325 5323 5325 5323 5320 5316 5313 5310 5311 5312 5310 5304 5301
5240 5246 5246 5260 5265 5256 5243 5244 5243 5243 5262 5268 5276 5280 5287 5292 5310 5325 5321 5324 5337 5343 5345 5342 5336 5331 5329 5329 5328 5327 5326 5323 5323 5325 5326 5327 5327 5325 5322 5319 5316 5313 5313 5313 5315 5313 5311 5310 5309 5307 5304 5301 5300 5299